| time (UTC) | temp F | wind direction | speed knots | gust knots | rain 1hr in | rain 24hr in | rain mn in | humidity % | barometer mb |
| 20260508211539 | 95 | 251 | 0.0 | 10.4 | 0.00 | 0.00 | 0.00 | 19 | 964.7 |
| 20260508210037 | 94 | 218 | 3.5 | 8.7 | 0.00 | 0.00 | 0.00 | 19 | 965.1 |
| 20260508204541 | 92 | 252 | 2.6 | 9.6 | 0.00 | 0.00 | 0.00 | 20 | 965.4 |
| 20260508203032 | 93 | 250 | 0.9 | 10.4 | 0.00 | 0.00 | 0.00 | 20 | 965.6 |
| 20260508201531 | 93 | 234 | 0.9 | 8.7 | 0.00 | 0.00 | 0.00 | 20 | 965.7 |
| 20260508200031 | 92 | 242 | 0.0 | 3.5 | 0.00 | 0.00 | 0.00 | 20 | 966.0 |
| 20260508194527 | 91 | 163 | 0.0 | 8.7 | 0.00 | 0.00 | 0.00 | 22 | 966.2 |
| 20260508193024 | 91 | 198 | 1.7 | 6.1 | 0.00 | 0.00 | 0.00 | 21 | 966.4 |
| 20260508191528 | 90 | 207 | 0.0 | 1.7 | 0.00 | 0.00 | 0.00 | 21 | 966.7 |
| 20260508190026 | 89 | 213 | 1.7 | 7.8 | 0.00 | 0.00 | 0.00 | 22 | 966.9 |
| 20260508184520 | 88 | 273 | 0.0 | 7.0 | 0.00 | 0.00 | 0.00 | 22 | 967.1 |
| 20260508183018 | 87 | 172 | 1.7 | 8.7 | 0.00 | 0.00 | 0.00 | 24 | 967.3 |
| 20260508181518 | 88 | 94 | 0.0 | 0.0 | 0.00 | 0.00 | 0.00 | 23 | 967.4 |
| 20260508180020 | 86 | 88 | 0.0 | 0.0 | 0.00 | 0.00 | 0.00 | 24 | 967.6 |
| 20260508174513 | 86 | 88 | 0.0 | 0.0 | 0.00 | 0.00 | 0.00 | 24 | 967.8 |
| 20260508173010 | 85 | 88 | 0.0 | 0.0 | 0.00 | 0.00 | 0.00 | 25 | 967.8 |
| 20260508171513 | 85 | 88 | 0.0 | 0.0 | 0.00 | 0.00 | 0.00 | 25 | 968.0 |
| 20260508170007 | 83 | 88 | 0.0 | 0.0 | 0.00 | 0.00 | 0.00 | 27 | 968.1 |
| 20260508164504 | 82 | 76 | 0.0 | 0.0 | 0.00 | 0.00 | 0.00 | 27 | 968.2 |
| 20260508163002 | 81 | 76 | 0.0 | 0.0 | 0.00 | 0.00 | 0.00 | 27 | 968.2 |
| 20260508161501 | 81 | 76 | 0.0 | 0.0 | 0.00 | 0.00 | 0.00 | 28 | 968.2 |
| 20260508160158 | 80 | 75 | 0.0 | 0.0 | 0.00 | 0.00 | 0.00 | 29 | 968.3 |
| 20260508154559 | 79 | 76 | 0.0 | 0.0 | 0.00 | 0.00 | 0.00 | 29 | 968.0 |
| 20260508153055 | 78 | 72 | 0.0 | 0.0 | 0.00 | 0.00 | 0.00 | 30 | 968.2 |
| 20260508151554 | 78 | 72 | 0.0 | 0.0 | 0.00 | 0.00 | 0.00 | 30 | 968.3 |
| 20260508150151 | 77 | 72 | 0.0 | 0.0 | 0.00 | 0.00 | 0.00 | 31 | 968.3 |
| 20260508144549 | 76 | 72 | 0.0 | 0.0 | 0.00 | 0.00 | 0.00 | 31 | 968.4 |
| 20260508143059 | 75 | 69 | 0.0 | 0.0 | 0.00 | 0.00 | 0.00 | 32 | 968.4 |
| 20260508141554 | 74 | 84 | 0.0 | 0.0 | 0.00 | 0.00 | 0.00 | 33 | 968.2 |
| 20260508140049 | 73 | 84 | 0.0 | 0.0 | 0.00 | 0.00 | 0.00 | 33 | 968.2 |
| 20260508134543 | 72 | 84 | 0.0 | 0.0 | 0.00 | 0.00 | 0.00 | 34 | 967.9 |
| 20260508133144 | 71 | 84 | 0.0 | 0.0 | 0.00 | 0.00 | 0.00 | 34 | 967.8 |
| 20260508131540 | 71 | 84 | 0.0 | 0.0 | 0.00 | 0.00 | 0.00 | 35 | 967.6 |
| 20260508130037 | 71 | 84 | 0.0 | 0.0 | 0.00 | 0.00 | 0.00 | 34 | 967.3 |
| 20260508124534 | 71 | 84 | 0.0 | 0.0 | 0.00 | 0.00 | 0.00 | 34 | 967.1 |
| 20260508123032 | 71 | 81 | 0.0 | 0.0 | 0.00 | 0.00 | 0.00 | 34 | 966.8 |
| 20260508121630 | 71 | 79 | 0.0 | 0.0 | 0.00 | 0.00 | 0.00 | 34 | 966.8 |
| 20260508120034 | 71 | 79 | 0.0 | 0.0 | 0.00 | 0.00 | 0.00 | 35 | 966.7 |
| 20260508114528 | 71 | 79 | 0.0 | 0.0 | 0.00 | 0.00 | 0.00 | 35 | 966.7 |
| 20260508113026 | 71 | 79 | 0.0 | 0.0 | 0.00 | 0.00 | 0.00 | 35 | 966.7 |
| 20260508111525 | 71 | 79 | 0.0 | 0.0 | 0.00 | 0.00 | 0.00 | 35 | 966.6 |
| 20260508110023 | 71 | 79 | 0.0 | 0.0 | 0.00 | 0.00 | 0.00 | 34 | 966.6 |
| 20260508104525 | 72 | 79 | 0.0 | 0.0 | 0.00 | 0.00 | 0.00 | 33 | 966.6 |
| 20260508103019 | 73 | 79 | 0.0 | 0.0 | 0.00 | 0.00 | 0.00 | 33 | 966.5 |
| 20260508101518 | 72 | 79 | 0.0 | 0.0 | 0.00 | 0.00 | 0.00 | 33 | 966.4 |
| 20260508100017 | 72 | 79 | 0.0 | 0.0 | 0.00 | 0.00 | 0.00 | 33 | 966.2 |
| 20260508094515 | 72 | 79 | 0.0 | 0.0 | 0.00 | 0.00 | 0.00 | 33 | 966.2 |
| 20260508093021 | 72 | 79 | 0.0 | 0.0 | 0.00 | 0.00 | 0.00 | 32 | 966.3 |
| 20260508091513 | 72 | 72 | 0.0 | 0.0 | 0.00 | 0.00 | 0.00 | 31 | 966.2 |
| 20260508090014 | 72 | 68 | 0.0 | 0.0 | 0.00 | 0.00 | 0.00 | 28 | 966.3 |
| 20260508084510 | 72 | 64 | 0.0 | 0.0 | 0.00 | 0.00 | 0.00 | 25 | 966.4 |
| 20260508083018 | 73 | 66 | 0.0 | 0.0 | 0.00 | 0.00 | 0.00 | 25 | 966.4 |
| 20260508081504 | 73 | 110 | 0.0 | 0.0 | 0.00 | 0.00 | 0.00 | 26 | 966.4 |
| 20260508080002 | 74 | 110 | 0.0 | 0.0 | 0.00 | 0.00 | 0.00 | 27 | 966.3 |
| 20260508074600 | 74 | 110 | 0.0 | 0.0 | 0.00 | 0.00 | 0.00 | 27 | 966.3 |
| 20260508073059 | 75 | 110 | 0.0 | 0.0 | 0.00 | 0.00 | 0.00 | 27 | 966.2 |
| 20260508071556 | 76 | 265 | 0.0 | 0.0 | 0.00 | 0.00 | 0.00 | 25 | 966.1 |
| 20260508070050 | 77 | 265 | 0.0 | 0.0 | 0.00 | 0.00 | 0.00 | 24 | 966.0 |
| 20260508064605 | 77 | 265 | 0.0 | 0.0 | 0.00 | 0.00 | 0.00 | 25 | 966.0 |
| 20260508063048 | 78 | 265 | 0.0 | 0.0 | 0.00 | 0.00 | 0.00 | 25 | 966.1 |
| 20260508061548 | 78 | 265 | 0.0 | 0.0 | 0.00 | 0.00 | 0.00 | 24 | 966.1 |
| 20260508060049 | 79 | 265 | 0.0 | 0.0 | 0.00 | 0.00 | 0.00 | 23 | 966.0 |
| 20260508054551 | 80 | 265 | 0.0 | 0.0 | 0.00 | 0.00 | 0.00 | 22 | 966.0 |
| 20260508053047 | 81 | 265 | 0.0 | 0.0 | 0.00 | 0.00 | 0.00 | 21 | 965.9 |
| 20260508051546 | 81 | 265 | 0.0 | 0.0 | 0.00 | 0.00 | 0.00 | 21 | 965.8 |
| 20260508050050 | 82 | 265 | 0.0 | 0.0 | 0.00 | 0.00 | 0.00 | 19 | 965.7 |
| 20260508044546 | 83 | 265 | 0.0 | 0.0 | 0.00 | 0.00 | 0.00 | 19 | 965.6 |
| 20260508043045 | 85 | 265 | 0.0 | 0.0 | 0.00 | 0.00 | 0.00 | 18 | 965.5 |
| 20260508041545 | 86 | 265 | 0.0 | 0.0 | 0.00 | 0.00 | 0.00 | 17 | 965.3 |
| 20260508040043 | 87 | 265 | 0.0 | 0.0 | 0.00 | 0.00 | 0.00 | 17 | 965.2 |
| 20260508034544 | 87 | 265 | 0.0 | 0.0 | 0.00 | 0.00 | 0.00 | 17 | 965.0 |
| 20260508033042 | 88 | 265 | 0.0 | 0.0 | 0.00 | 0.00 | 0.00 | 16 | 964.8 |
| 20260508031542 | 88 | 265 | 0.0 | 0.0 | 0.00 | 0.00 | 0.00 | 16 | 964.6 |
| 20260508030053 | 89 | 262 | 0.0 | 7.8 | 0.00 | 0.00 | 0.00 | 16 | 964.5 |
| 20260508024553 | 89 | 260 | 5.2 | 9.6 | 0.00 | 0.00 | 0.00 | 15 | 964.2 |
| 20260508023040 | 89 | 257 | 6.1 | 10.4 | 0.00 | 0.00 | 0.00 | 15 | 964.0 |
| 20260508021540 | 90 | 286 | 0.9 | 9.6 | 0.00 | 0.00 | 0.00 | 14 | 964.0 |
| 20260508020045 | 90 | 254 | 0.0 | 7.8 | 0.00 | 0.00 | 0.00 | 14 | 963.8 |
| 20260508014539 | 91 | 271 | 0.0 | 8.7 | 0.00 | 0.00 | 0.00 | 14 | 963.7 |
| 20260508013037 | 92 | 198 | 0.9 | 7.0 | 0.00 | 0.00 | 0.00 | 14 | 963.6 |
| 20260508011549 | 92 | 237 | 0.0 | 7.0 | 0.00 | 0.00 | 0.00 | 13 | 963.5 |
| 20260508010037 | 93 | 267 | 0.0 | 0.0 | 0.00 | 0.00 | 0.00 | 13 | 963.5 |
| 20260508004550 | 93 | 267 | 0.0 | 7.8 | 0.00 | 0.00 | 0.00 | 13 | 963.5 |
| 20260508003041 | 93 | 284 | 1.7 | 7.8 | 0.00 | 0.00 | 0.00 | 13 | 963.5 |
| 20260508001539 | 94 | 271 | 0.0 | 8.7 | 0.00 | 0.00 | 0.00 | 12 | 963.4 |
| 20260508000033 | 93 | 229 | 1.7 | 9.6 | 0.00 | 0.00 | 0.00 | 13 | 963.5 |
| 20260507234533 | 94 | 215 | 2.6 | 12.2 | 0.00 | 0.00 | 0.00 | 13 | 963.4 |
| 20260507233032 | 93 | 182 | 1.7 | 8.7 | 0.00 | 0.00 | 0.00 | 13 | 963.5 |
| 20260507231530 | 94 | 183 | 0.0 | 0.0 | 0.00 | 0.00 | 0.00 | 13 | 963.6 |
| 20260507230028 | 93 | 200 | 0.0 | 12.2 | 0.00 | 0.00 | 0.00 | 13 | 963.8 |
| 20260507224526 | 93 | 244 | 0.0 | 0.0 | 0.00 | 0.00 | 0.00 | 12 | 964.0 |
| 20260507223025 | 94 | 263 | 0.9 | 8.7 | 0.00 | 0.00 | 0.00 | 12 | 964.2 |
| 20260507221521 | 93 | 207 | 0.0 | 7.0 | 0.00 | 0.00 | 0.00 | 13 | 964.3 |
| 20260507220019 | 93 | 234 | 0.9 | 6.1 | 0.00 | 0.00 | 0.00 | 13 | 964.6 |
| 20260507214519 | 92 | 168 | 0.0 | 0.0 | 0.00 | 0.00 | 0.00 | 13 | 964.7 |
| 20260507213021 | 92 | 236 | 0.0 | 7.8 | 0.00 | 0.00 | 0.00 | 14 | 965.0 |